FENGYUN 1C DEB, 31169

Orbit data source: Space-Track

FENGYUN 1C DEB, 31169 is space debris in SSO originally from a launch on Mon, 10 May 1999 UTC launched from the Taiyaun Space Center, China (TSC). Fengyun 1C debris stems from the Chinese weather satellite Fengyun-1C, which was intentionally destroyed by a Chinese anti-satellite missile in 2007. This event dramatically increased the amount of space debris, with thousands of trackable fragments posing hazards to satellites and human spaceflight. The Fengyun 1C debris cloud has become a focal point in discussions about space sustainability and the need for international regulations to prevent the creation of new debris.

Loading next visibility...
Identifier
31169, 1999-025BHX
Orbit
SSO
Country
Flag of CNCN / PRC
Related business
Manufacturer
Unknown
Mission
Spacecraft
Bus & Motor
Unknown
Mass
Unknown
Launch date (UTC)
1999-05-10 (27 years ago)
Launch vehicle
Unknown
Launch site
Taiyaun Space Center, China (TSC)
Object type
Payload
Rocket body
Debris
Shape & HBR
Unknown shape, 0.1 m
Radar Cross Section
Medium (>0.1 m² and <1 m²)

Expand to show TLE details & history
Last TLE update: 1 week ago

TLE from 1 week ago
0 FENGYUN 1C DEB
1 31169U 99025BHX 26152.07003816  .00004338  00000-0  17362-2 0  9995
2 31169  99.1386 191.3346 0055408 245.3694 114.1708 14.28069849595349
Epoch: 2026-06-01T01:40Z
TLE epoch observation values (Epoch: 2026-06-01T01:40:51.297Z)
Latitude
0.00002°
Longitude
-83.44179°
Altitude
817.568 km
Speed
7.436 km/s
True Right ascension
12h 45m 20s
True Declination
0° 00' 00"
Sunlit
Object was in full shadow at epoch
Visualization orbit readout
Latitude
Unknown
Longitude
Unknown
Altitude
Unknown
Speed
Unknown
Apparent Right ascension
Unknown
Apparent Declination
Unknown
Sunlit
N/A
Visualization observer readout
Local Sidereal Time
01:38:50
Azimuth
Unknown
Elevation
Unknown
Doppler factor
Unknown
Orbital elements
Apogee altitude
835.106 km
Perigee altitude
755.612 km
Semi-major axis
7,173.496 km
Eccentricity
0.00554
Inclination
99.1386°
RAAN
191.3346°
Arg. of periapsis
245.3694°
True anomaly
114.74842°
Mean anomaly
114.1708°
Eccentric anomaly
114.45977°
Mean motion
3.57229 °/min
Orbital period
100.78 mins
BSTAR
0.0017362
Loading maneuver chart data...
Computing Atmospheric mass density...
Loading historical data...
Loading historical data...
Loading historical data...
Loading historical data...
Loading historical data...
Loading historical data...
Loading historical data...

Documentation

Showing up to 5 results
|